Simultaneous Nadir Overpasses (SNOs) Predictions

Prediction of SNOs between GOES-15 and METOP-B Satellite Orbit:

Table of predicted SNOs for the next 14.0 days since TLE Epoch: 8/13/2022
Index Date Time (GOES-15) GOES-15 Lat,Lon METOP-B Lat,Lon Distance(km) Time Diff (sec)
1 08/14/2022 06:16:31 0.09,-128.03 -0.77,-131.86 436.84 80
2 08/15/2022 05:58:30 0.07,-128.03 0.31,-126.85 133.08 80
3 08/16/2022 18:14:43 -0.11,-128.11 0.64,-131.43 378.19 80
4 08/17/2022 17:56:42 -0.08,-128.12 -0.45,-126.43 192.07 80
5 08/19/2022 06:13:02 0.12,-128.03 -0.52,-131.03 341.02 80
6 08/20/2022 05:55:02 0.10,-128.03 0.56,-126.03 228.40 80
7 08/21/2022 18:11:13 -0.13,-128.10 0.44,-130.59 284.39 80
8 08/22/2022 17:53:13 -0.11,-128.10 -0.65,-125.59 285.15 80
9 08/24/2022 06:09:32 0.14,-128.01 -0.37,-130.19 248.36 80
10 08/25/2022 05:51:33 0.12,-128.00 0.78,-125.20 320.38 80
11 08/26/2022 18:07:44 -0.16,-128.06 0.22,-129.76 193.73 80
